Theta_e
352 353 354 354 355 354 353 352 351 351 352 352 351 351 352 353 352 352 352 351 351 352 352 352 352 349 350 351 350 351 352 350 349 351 351 350 352 352 353 349 344 344 346 346 346 345 343 344 345 346 346 346 349 349 348 348 346 345 345 345 346 346 344 343 341 340 340 340 341 341 342 342 343 342 342 342 341 341 340 339 340 341 342 342 342
352 353 354 356 356 354 354 352 351 352 353 352 351 351 352 352 352 352 352 353 352 353 353 352 351 349 349 350 349 349 350 349 349 350 350 350 352 351 352 352 346 344 345 345 346 347 346 344 344 347 347 346 347 349 348 349 348 346 345 345 345 346 345 344 343 342 340 339 339 339 340 340 341 341 341 341 341 340 340 339 339 339 340 341 342
353 355 354 355 356 354 353 352 353 353 351 351 351 351 351 350 351 351 352 353 353 352 352 351 349 348 347 347 348 348 348 348 348 349 349 350 350 351 352 353 349 345 344 345 346 346 347 347 346 347 348 346 347 349 348 348 348 347 346 343 342 344 345 345 345 344 343 341 340 339 339 339 340 340 340 340 340 340 340 339 339 338 338 338 339
356 358 356 355 355 354 354 353 354 353 351 351 352 352 351 351 351 351 349 350 350 349 347 346 345 341 340 342 343 345 346 347 348 347 348 349 350 351 352 351 351 349 346 344 345 345 346 346 347 348 348 347 347 349 349 348 347 346 345 344 342 343 344 345 345 345 344 344 343 342 340 340 340 340 340 340 340 339 339 339 339 339 338 337 337
358 359 356 356 355 355 355 354 353 353 353 353 353 353 352 350 349 348 347 346 346 346 344 343 341 339 339 340 342 344 346 348 348 348 349 348 348 349 349 349 349 349 348 347 346 345 346 346 345 347 349 348 348 349 348 348 347 345 344 345 345 344 344 344 345 344 344 345 345 344 343 342 341 341 340 340 340 340 340 340 339 339 339 338 338
358 358 355 356 356 357 355 354 353 352 353 354 354 353 350 348 348 347 347 346 345 344 341 340 340 341 342 343 345 346 348 348 348 349 349 348 347 346 347 349 348 346 347 348 348 346 346 346 346 346 348 348 349 349 348 347 347 345 343 345 345 344 344 344 344 343 344 344 344 345 345 345 344 342 341 341 340 340 340 340 340 340 340 340 339
357 357 355 354 356 357 355 354 354 353 353 353 351 350 347 347 348 346 345 344 344 341 339 340 342 342 344 345 346 348 350 350 350 350 348 347 347 345 345 348 349 347 346 347 347 346 346 347 347 347 347 348 349 349 348 347 347 347 344 344 345 345 345 344 344 344 343 343 344 344 345 345 345 344 343 343 342 340 340 340 340 340 340 340 340
355 357 356 355 357 356 355 355 354 354 353 349 348 348 347 346 345 343 343 342 341 340 339 341 341 342 344 345 346 348 350 350 350 349 348 347 347 345 346 347 349 349 348 349 348 346 346 347 347 347 348 349 349 349 349 348 347 347 346 345 345 345 345 345 345 346 345 344 343 344 344 345 345 345 344 344 343 342 342 341 340 340 339 339 339
354 358 356 355 357 356 356 355 354 354 350 345 347 348 346 344 342 341 341 339 339 340 339 340 341 341 343 343 345 346 347 348 347 347 346 346 346 347 348 348 349 348 348 350 349 348 348 347 347 348 347 348 348 348 349 348 348 348 348 347 346 345 345 345 346 346 345 345 344 344 344 344 344 345 345 344 344 344 343 343 342 341 340 339 338
354 356 355 354 357 357 357 356 354 352 347 345 346 345 344 343 340 340 340 339 340 342 341 342 342 342 342 343 344 346 346 346 345 345 345 345 346 348 348 348 348 348 347 348 348 348 348 347 347 348 347 347 347 347 348 349 348 348 348 347 347 346 345 346 346 346 346 346 346 345 345 344 344 345 345 345 344 344 344 344 343 342 342 341 340
354 354 354 355 358 357 358 356 353 350 347 346 345 342 343 342 339 340 341 342 344 344 344 344 345 345 344 343 344 346 347 347 346 345 344 344 345 346 347 347 347 348 347 347 347 346 346 345 346 347 347 348 347 347 348 348 347 348 347 347 347 347 346 346 347 346 346 347 346 346 346 346 345 345 346 346 344 343 344 344 344 343 342 342 342
355 354 355 357 359 358 357 354 350 349 347 346 344 342 342 340 339 342 343 344 345 345 346 346 346 346 345 345 346 347 347 347 345 345 343 344 344 344 345 345 345 346 345 345 345 344 343 343 344 346 346 347 348 346 347 347 346 346 347 347 347 347 348 347 347 347 347 347 346 347 347 346 346 346 346 346 345 344 343 343 344 344 343 342 342
356 355 355 358 360 358 355 352 349 348 347 346 345 344 342 339 340 343 344 345 346 345 346 346 346 348 347 346 346 345 346 346 344 343 342 342 342 342 343 343 343 343 343 343 343 342 342 342 344 344 344 344 346 346 346 347 346 345 345 346 346 346 347 347 347 347 347 347 347 346 346 346 346 346 346 346 345 345 345 344 344 344 343 342 343
355 356 356 358 360 358 355 351 349 348 347 346 345 344 343 340 340 343 345 346 346 345 345 344 345 347 345 346 348 345 343 343 343 342 340 341 341 341 341 341 341 341 341 341 341 341 341 342 343 344 344 343 344 345 346 346 344 341 341 343 344 345 346 346 347 347 347 347 346 346 347 347 347 347 347 346 346 346 346 345 345 344 344 343 343
357 359 359 360 359 356 354 351 348 348 348 347 346 345 343 340 339 343 345 344 345 345 345 342 342 343 343 348 352 351 350 346 342 341 339 339 340 339 339 340 340 339 339 339 339 340 340 342 343 343 344 343 343 344 344 344 342 341 341 341 341 342 344 346 346 346 347 347 346 347 347 347 347 347 347 347 347 347 346 346 346 345 345 345 344
359 360 360 360 358 354 353 351 350 350 349 348 346 345 342 340 340 342 342 342 343 344 344 342 340 343 348 351 350 352 355 350 343 341 337 338 338 337 337 337 336 336 337 336 336 338 340 340 342 342 342 342 342 343 342 341 342 341 339 337 335 336 339 342 345 345 346 346 346 346 346 346 346 346 347 347 347 347 347 347 346 346 346 346 345
359 359 359 358 356 353 351 350 350 350 349 348 346 344 341 338 339 339 338 340 341 341 343 342 340 341 345 348 349 353 352 346 345 346 339 336 337 336 335 335 333 333 335 334 332 336 338 337 339 340 338 338 339 341 342 342 342 338 329 324 324 326 328 332 337 339 341 342 343 344 344 345 345 346 346 346 347 347 347 347 346 346 347 346 346
359 359 358 356 354 353 351 350 350 349 349 348 346 343 339 336 339 339 339 341 340 338 342 342 340 341 342 343 346 348 348 344 349 354 346 337 336 336 335 334 333 332 333 334 332 333 336 336 337 336 334 335 335 335 336 336 334 329 320 318 318 319 320 322 324 327 328 331 333 336 338 340 341 342 343 344 345 345 346 346 346 346 346 347 346
357 357 355 353 352 352 351 350 350 348 348 347 344 341 339 339 340 340 341 341 338 338 341 341 341 342 340 340 341 340 341 343 346 352 353 346 339 334 334 333 333 333 332 334 333 331 331 332 333 333 332 333 333 333 333 330 325 319 316 316 316 316 316 316 317 318 319 320 321 323 326 328 331 334 336 338 340 342 342 343 344 345 346 346 346
355 355 353 352 352 352 352 351 349 348 347 346 342 340 340 341 341 341 340 339 339 341 340 339 341 341 338 339 341 340 340 341 340 342 349 352 348 341 336 332 331 332 331 330 331 330 330 330 330 331 331 331 331 332 333 333 329 324 320 318 317 317 317 316 315 315 316 316 317 317 318 319 321 322 325 328 331 334 337 339 341 343 344 345 346
355 353 352 352 351 352 351 350 347 346 346 343 339 339 342 343 341 339 339 338 339 340 339 338 339 340 339 338 339 340 338 337 337 337 341 348 350 347 339 334 334 333 330 330 331 329 329 329 328 328 329 330 330 330 332 333 332 329 325 321 320 320 319 319 318 316 315 315 316 316 317 317 317 318 319 320 322 324 328 331 335 338 341 343 344
355 353 353 352 351 350 350 348 346 344 342 340 340 341 341 341 340 340 340 340 339 338 339 340 338 338 339 338 338 339 338 338 339 337 337 342 345 343 337 336 339 335 331 332 333 330 329 329 328 327 328 329 330 330 330 331 332 330 328 326 325 324 321 320 320 320 318 316 315 315 316 316 316 316 317 317 318 319 320 322 325 329 332 336 339
355 354 353 352 350 349 348 346 344 342 340 340 342 342 338 337 340 342 342 341 340 338 339 340 339 338 338 338 338 338 337 339 338 335 336 341 344 342 336 336 337 334 332 334 333 332 331 330 329 328 328 328 329 330 330 331 331 330 329 329 329 327 323 321 320 320 321 319 317 315 315 315 315 315 316 316 317 317 318 318 319 321 323 325 328
353 353 351 351 350 347 344 344 344 342 341 342 342 340 339 339 341 342 342 342 342 341 341 341 340 339 338 338 338 335 334 336 336 335 336 338 340 341 339 338 339 337 335 335 334 333 332 332 331 329 328 328 327 329 330 330 330 329 329 330 329 328 325 323 322 323 323 322 320 318 316 315 315 315 316 316 316 316 316 317 317 318 319 319 321
351 351 349 349 349 346 343 344 344 344 342 340 340 340 341 342 341 341 342 342 342 341 341 342 341 340 339 338 337 335 335 335 334 334 336 336 338 340 339 337 339 338 336 335 335 335 334 333 332 331 329 328 327 328 328 328 328 328 330 330 328 327 326 325 326 327 328 327 325 323 319 317 316 316 315 316 316 316 316 316 316 316 317 317 318
350 350 349 348 349 346 344 343 343 344 343 340 340 341 341 341 340 340 341 341 341 341 341 340 340 340 339 338 337 336 335 335 334 334 335 335 336 339 339 339 338 337 336 336 334 335 335 334 333 332 331 329 329 329 328 329 330 330 329 330 329 328 327 327 328 329 330 330 329 328 324 322 320 318 316 316 316 316 316 316 317 317 316 316 316
350 350 350 349 348 347 344 343 343 344 344 342 341 340 340 340 340 339 340 341 340 340 340 339 339 340 339 339 339 338 336 334 334 334 335 335 335 336 338 341 341 339 338 337 335 334 335 334 333 332 331 331 330 329 330 330 330 331 330 330 330 330 330 329 330 330 330 330 330 330 328 326 324 323 320 318 316 316 316 316 317 317 317 317 317
350 350 349 348 347 348 345 344 344 344 344 343 341 340 339 340 340 340 341 341 340 340 340 339 339 339 339 338 338 337 338 337 336 336 336 336 337 337 337 339 341 342 341 340 339 336 334 333 333 333 332 332 330 330 330 330 330 331 331 331 331 331 331 331 331 331 331 330 330 330 330 329 328 326 324 321 318 316 316 316 317 317 317 317 317
350 349 350 348 347 348 346 344 345 345 344 343 341 341 340 340 340 340 341 341 340 340 340 340 339 339 338 338 338 338 338 338 337 337 337 337 337 338 338 337 339 342 343 342 341 338 335 334 334 334 333 331 330 330 330 330 331 331 331 331 331 331 331 332 332 332 332 331 331 331 331 330 329 327 325 323 321 318 317 316 316 316 316 316 316
352 350 350 348 347 347 346 344 344 345 345 343 342 341 340 340 341 341 340 340 339 339 340 339 339 340 339 338 338 338 338 338 338 337 337 338 337 338 339 338 338 340 341 342 341 338 336 335 334 334 333 331 331 331 331 331 331 331 331 331 331 331 331 332 332 333 333 332 331 331 331 330 329 328 325 322 320 320 318 317 316 316 316 316 316
352 351 349 348 347 347 346 344 344 344 344 343 342 342 341 340 340 340 339 339 339 340 340 339 338 339 339 338 337 338 338 338 338 338 338 338 338 338 338 339 338 338 339 341 341 339 337 336 335 334 333 333 333 333 332 332 332 332 332 332 332 332 332 332 332 333 333 332 332 332 331 331 330 328 326 322 319 319 318 318 317 316 316 316 316
354 351 349 349 347 346 346 344 344 344 344 344 342 342 342 341 340 340 340 340 340 340 340 340 340 339 338 338 338 338 338 338 338 338 338 338 338 338 338 339 339 339 339 340 342 341 339 338 337 335 335 334 334 333 333 333 332 333 333 333 333 332 332 333 333 334 334 334 334 334 333 332 331 329 329 326 322 319 318 318 318 317 316 316 316
354 351 349 349 348 347 346 345 345 344 344 344 343 341 342 341 341 341 340 340 339 339 340 340 340 339 338 338 338 338 338 339 338 338 339 338 338 338 338 339 340 341 340 341 342 341 340 340 339 337 336 335 334 334 334 333 333 333 333 333 333 332 332 333 333 334 335 335 335 334 333 332 331 330 330 329 327 325 323 321 319 318 317 316 316
355 352 349 349 348 347 345 345 345 345 345 344 343 343 343 342 341 340 340 340 340 340 340 340 339 339 338 338 339 339 339 339 339 339 339 338 338 338 338 338 339 339 339 340 341 341 340 340 339 338 337 336 335 334 334 333 333 333 333 333 333 333 333 333 333 334 334 335 334 333 332 332 331 331 329 329 328 327 326 324 321 320 318 318 317
356 352 350 349 349 347 345 344 345 345 344 344 343 344 344 343 341 341 341 341 342 341 340 340 339 339 339 339 339 339 339 340 339 339 339 338 338 337 337 337 337 337 337 337 338 339 339 338 338 338 337 336 336 335 335 334 334 334 333 333 333 333 333 333 333 333 333 333 333 332 332 331 330 330 328 327 327 326 326 325 323 321 320 319 318
356 353 351 350 349 347 345 344 345 345 344 344 344 344 344 342 340 339 340 340 341 341 340 339 339 339 339 339 339 339 339 339 338 338 338 338 337 337 338 337 336 336 336 336 337 338 339 339 339 338 337 337 336 336 335 335 335 335 334 333 333 333 332 332 332 332 332 332 331 331 330 329 329 329 328 327 326 326 326 326 326 324 323 321 320
357 355 352 350 349 347 345 344 344 344 343 343 345 344 342 342 339 338 339 340 340 341 340 339 339 339 339 339 340 339 339 338 338 337 337 337 337 338 338 337 336 336 336 337 338 339 339 339 339 339 338 338 337 336 335 335 335 335 334 333 333 333 332 332 331 331 331 331 330 330 329 329 328 328 328 328 327 327 327 327 327 327 326 325 324
358 356 354 351 348 346 345 345 345 343 342 343 344 343 342 342 340 340 341 340 340 340 340 340 339 339 339 339 340 339 339 338 338 337 337 337 337 337 337 337 337 337 337 338 338 338 338 338 338 338 338 338 337 336 335 335 335 335 333 332 332 332 332 332 332 332 331 330 330 330 330 329 329 328 328 328 328 328 327 328 327 327 326 326 326
359 357 356 352 349 346 345 346 345 343 342 343 344 342 340 340 339 341 342 341 340 340 340 339 339 339 339 339 339 339 339 339 338 337 337 337 337 337 337 337 337 338 338 337 337 337 337 337 337 337 337 337 336 335 335 335 334 333 331 331 332 332 332 332 332 331 330 329 329 329 329 330 329 329 329 328 328 328 328 328 327 327 327 326 326
359 357 356 353 349 346 345 346 345 343 342 342 343 342 340 338 338 341 342 341 340 340 340 339 340 340 339 339 338 338 338 339 338 338 338 338 338 337 338 338 338 337 337 336 336 336 336 336 336 335 335 335 335 335 334 335 334 333 331 331 332 332 331 331 331 331 330 329 328 328 329 329 329 329 329 329 328 328 328 328 328 328 327 327 326
359 357 356 352 349 347 346 346 345 343 341 341 343 340 336 335 338 341 341 341 340 340 340 340 340 340 339 338 338 338 337 337 337 337 337 337 337 338 339 338 337 336 335 335 335 335 335 336 335 334 334 333 333 333 333 334 333 332 332 332 332 332 332 332 331 330 330 329 329 329 329 329 329 329 328 329 329 329 329 329 328 328 327 327 326
359 358 356 351 348 348 348 347 345 344 342 342 342 337 330 331 336 340 341 340 340 340 341 341 340 340 338 337 337 338 336 336 335 335 335 335 335 335 335 334 334 335 336 335 335 335 335 335 335 334 334 333 332 332 332 332 331 330 331 332 332 332 332 332 330 330 329 329 329 329 329 329 328 328 328 329 329 328 328 328 328 327 328 327 327
359 358 355 352 349 349 350 347 344 343 342 340 341 336 331 333 338 339 340 340 340 341 341 339 339 339 338 337 337 337 337 336 336 335 334 334 334 333 333 333 334 335 335 335 334 334 334 334 334 333 333 333 332 332 332 331 331 330 330 331 331 331 331 331 330 329 329 328 328 329 328 328 327 328 327 327 327 326 326 327 326 326 326 326 326
360 358 356 352 350 350 350 346 343 341 339 338 340 336 331 334 338 338 339 340 340 340 337 332 331 336 339 338 338 337 336 337 337 337 336 336 335 336 336 335 336 336 336 335 335 334 333 333 332 332 333 332 331 331 332 331 331 331 331 331 330 330 330 330 330 329 329 328 328 328 327 326 326 326 326 325 325 325 325 325 324 324 324 324 323
361 359 357 353 351 350 349 345 342 340 337 337 339 335 330 334 337 336 339 340 338 337 333 325 326 334 340 339 338 338 337 338 338 338 338 338 338 337 336 336 336 336 336 335 334 334 333 332 332 332 332 331 330 331 331 331 330 330 330 330 329 329 329 329 328 328 327 325 326 326 326 325 324 324 324 324 324 324 324 324 324 324 323 322 321
362 360 357 353 351 348 346 344 341 340 337 336 338 336 332 336 337 336 339 339 336 334 330 325 329 337 340 339 339 339 339 340 340 340 339 338 337 336 335 335 336 335 335 334 333 333 332 332 332 331 330 330 331 330 330 330 329 329 329 328 327 327 326 326 325 325 323 322 323 325 325 325 324 324 324 324 324 325 324 324 323 322 321 320 319
361 361 356 352 349 346 344 342 340 339 336 336 337 335 332 335 337 338 338 337 335 332 327 326 333 338 338 339 341 341 340 340 340 340 340 339 338 337 336 336 335 335 334 334 333 332 331 331 331 330 329 330 330 329 328 327 326 326 325 324 324 324 324 324 324 324 323 323 323 324 325 325 324 323 323 322 322 322 321 320 320 319 319 318 317
360 358 354 350 347 344 343 342 340 337 335 335 337 336 332 334 338 339 336 334 333 329 326 329 335 337 337 339 341 341 340 339 340 341 341 340 338 337 336 336 335 335 335 333 331 330 329 329 329 328 328 328 327 326 324 324 323 322 322 323 323 322 324 325 325 324 324 323 322 322 323 323 322 321 321 320 319 319 319 318 318 317 317 316 315
359 355 351 348 345 343 342 340 338 337 335 336 338 336 331 331 335 336 334 333 330 327 329 334 336 337 337 338 340 342 342 341 341 342 340 339 337 336 336 336 335 335 333 331 330 328 328 328 328 327 326 326 325 324 323 322 322 321 322 323 323 323 324 325 325 324 323 323 322 321 321 321 320 319 319 318 318 317 316 315 314 313 313 313 314
358 354 350 348 345 343 342 340 339 338 338 341 342 338 332 330 331 333 333 332 330 329 332 336 337 337 339 338 340 342 343 342 342 341 339 338 337 336 336 336 334 334 333 331 329 329 329 329 328 327 326 325 324 324 323 322 322 321 322 323 322 323 324 325 324 324 323 323 322 320 319 319 318 316 316 315 314 313 313 312 311 312 313 314 317
357 355 351 348 344 343 342 341 341 339 340 342 341 337 334 332 331 332 332 332 332 332 334 336 337 338 339 339 340 342 342 342 341 339 338 336 335 335 335 334 333 332 331 330 329 328 328 328 327 326 326 324 323 323 322 321 321 321 322 323 322 323 324 325 325 325 324 322 319 317 316 316 314 313 313 313 313 313 312 312 313 315 317 319 321
Wind_Speed
8 6 5 5 3 3 3 3 3 4 3 3 4 3 4 5 5 6 7 8 9 7 6 7 6 6 4 5 5 5 5 5 2 1 2 4 4 5 3 1 1 1 1 1 4 7 7 8 11 12 14 15 13 13 14 13 12 10 9 9 8 8 8 9 9 9 9 9 9 9 9 9 9 9 9 9 9 8 8 8 8 7 7 7 7
5 5 5 5 4 4 4 4 4 4 3 4 4 3 4 6 7 8 6 7 9 6 6 7 6 6 5 5 5 5 5 5 3 3 3 3 3 4 3 1 0 1 2 2 2 5 7 7 9 10 12 14 14 13 13 12 10 9 9 10 11 11 11 11 11 11 11 11 11 11 11 11 10 10 10 10 10 10 10 9 9 9 8 8 8
3 4 5 4 4 4 4 4 4 3 3 4 5 5 5 7 9 9 6 5 6 5 6 7 7 8 7 6 5 5 5 5 4 4 4 2 2 3 4 2 1 2 3 2 2 3 6 6 8 9 10 13 13 12 11 10 9 9 11 14 14 15 15 14 13 13 13 12 13 13 13 13 12 12 11 11 11 11 11 10 10 10 10 10 10
4 4 5 4 3 4 4 3 3 3 4 4 6 6 7 8 8 6 5 5 6 7 7 7 8 7 5 5 4 2 2 3 3 3 3 1 2 1 3 2 1 2 2 3 3 3 4 5 6 8 8 10 11 10 10 8 9 13 16 16 15 15 15 15 14 14 14 14 14 14 14 14 13 13 13 12 12 12 11 12 11 11 11 11 11
6 5 5 4 4 3 2 3 4 4 4 4 5 7 7 5 4 5 6 7 9 9 6 6 7 6 6 6 6 5 3 2 3 3 2 2 1 1 2 3 1 1 2 2 3 2 4 4 4 6 7 7 8 9 9 8 10 14 16 16 15 15 15 15 16 16 16 15 15 14 14 14 14 14 13 13 13 13 12 12 12 12 12 12 12
7 7 6 5 4 4 4 5 5 4 5 5 7 6 4 2 2 5 6 8 10 8 5 6 6 5 5 7 7 6 5 4 4 3 2 1 1 1 3 4 2 1 2 2 2 1 2 4 4 5 6 6 6 7 7 8 11 14 14 15 15 15 15 16 16 16 17 17 17 16 15 14 14 14 14 14 14 14 14 13 13 13 13 14 14
8 8 7 6 5 6 6 5 5 4 5 5 5 3 1 2 2 4 6 7 8 7 6 5 6 5 4 5 5 4 4 4 3 2 1 1 1 1 3 3 3 2 2 2 2 1 2 3 4 5 5 5 5 5 6 7 10 13 14 15 15 15 16 16 16 16 17 17 17 17 17 16 15 14 15 15 14 14 15 15 15 14 14 14 14
9 8 8 7 6 6 6 6 6 4 2 1 2 2 0 2 2 3 6 7 6 7 6 4 5 5 4 4 3 2 3 3 3 2 1 1 1 1 1 3 3 2 3 3 2 1 2 2 3 3 4 5 4 4 5 5 7 10 12 13 14 14 15 16 16 16 16 17 17 17 18 18 17 16 16 16 15 15 15 15 15 16 16 15 15
9 9 9 7 6 5 6 6 5 4 2 3 1 3 1 2 3 4 5 5 5 6 5 4 5 5 5 4 0 2 3 3 3 2 1 2 1 1 0 2 2 2 3 3 1 1 2 2 2 1 3 4 4 5 5 5 6 8 9 11 12 12 14 15 15 14 15 16 17 17 18 18 18 17 17 17 17 17 17 17 17 16 16 16 16
9 10 9 7 6 6 6 5 5 3 4 2 3 3 2 3 3 3 4 5 6 7 6 6 7 6 6 5 4 2 3 2 2 2 1 1 1 1 1 2 3 5 5 4 3 4 5 3 3 1 1 2 2 3 4 5 6 7 8 9 10 11 13 13 13 13 13 14 15 15 16 17 18 18 18 19 19 19 19 19 19 18 17 17 17
9 9 8 7 7 7 7 5 3 4 3 2 2 1 3 3 4 4 5 5 6 8 8 6 6 7 8 7 5 2 1 1 1 1 1 0 1 2 2 3 4 6 6 6 5 5 6 5 5 4 2 3 3 2 2 4 4 5 6 7 8 9 11 11 11 12 12 12 13 13 14 16 17 18 18 18 20 21 21 20 20 20 20 19 18
10 9 8 8 8 8 7 5 6 5 3 2 1 4 3 3 3 4 5 5 7 8 6 6 6 7 8 7 4 1 1 1 1 2 2 3 3 3 4 4 5 5 5 5 4 3 5 6 6 6 5 4 4 3 3 1 1 2 4 5 6 7 9 10 10 11 11 11 12 13 14 14 16 17 18 19 19 21 21 21 21 20 21 21 20
11 10 10 10 9 7 6 8 8 7 5 2 1 3 2 3 3 4 4 5 7 5 3 4 5 6 6 5 4 4 3 3 2 3 4 5 5 3 4 4 5 5 4 5 4 2 5 7 5 5 6 5 3 2 3 4 4 3 2 3 3 4 6 8 9 9 10 10 11 12 13 14 15 16 17 19 20 20 20 20 20 21 22 22 22
11 12 11 11 9 7 8 9 8 7 6 3 2 3 1 2 3 4 4 4 5 3 2 2 5 5 4 4 4 5 3 3 2 2 4 6 7 4 5 5 5 5 4 4 4 3 6 7 5 5 4 3 4 4 4 5 3 2 1 1 1 2 3 4 6 7 8 9 10 11 12 12 13 14 15 17 18 18 18 19 20 21 23 24 24
11 12 12 11 9 9 10 10 7 6 6 5 3 3 2 2 2 3 5 5 5 3 1 2 5 7 6 3 1 2 2 2 4 3 3 7 9 6 6 8 7 5 4 4 4 4 6 6 5 6 5 3 4 5 6 4 3 2 1 1 1 0 1 2 3 4 5 6 8 9 10 11 12 13 14 15 16 16 17 18 20 21 22 23 23
12 13 12 10 10 10 10 9 8 6 6 6 5 5 4 1 2 3 4 7 6 3 4 3 6 7 5 3 2 2 1 0 3 2 2 5 12 8 8 9 6 4 4 3 4 5 6 6 4 6 6 5 4 5 5 4 3 1 1 1 1 1 1 2 3 4 4 5 6 7 8 9 10 11 12 14 15 16 16 18 19 20 21 21 22
12 12 10 10 11 11 9 9 9 7 6 6 4 3 4 1 2 2 3 5 7 2 6 5 5 6 5 3 2 1 1 4 4 2 5 8 11 9 8 7 5 5 4 3 5 4 4 5 5 5 5 6 6 6 6 5 3 1 2 2 2 2 1 2 4 6 7 7 8 8 9 9 10 10 11 12 13 14 16 17 19 19 20 21 21
10 9 8 9 9 9 9 9 9 8 6 5 2 2 1 1 2 2 1 2 5 6 4 6 5 5 5 4 2 2 3 5 5 2 3 5 5 5 8 7 6 7 5 6 6 6 5 6 6 5 5 5 5 5 5 5 3 1 3 4 4 4 3 2 2 4 6 7 8 9 10 11 11 11 12 12 12 13 13 14 16 18 19 20 20
10 9 8 9 9 10 10 9 9 9 7 5 2 1 3 3 3 3 0 1 2 7 4 4 4 4 3 4 4 3 4 3 2 1 1 3 4 1 4 4 5 6 5 8 9 8 5 5 4 3 4 5 4 3 2 1 2 1 3 4 4 4 4 3 3 3 4 6 7 8 9 10 11 12 13 13 13 14 14 14 14 15 16 18 19
11 11 10 10 10 11 10 10 8 8 8 7 4 2 3 6 5 4 2 0 1 5 5 4 3 3 4 4 3 2 2 2 2 2 1 1 2 2 2 1 2 2 3 5 7 6 3 4 3 3 4 4 3 2 2 1 1 1 2 3 4 4 5 4 4 3 3 4 6 7 8 8 9 10 11 12 14 14 15 15 15 14 15 16 17
11 12 12 11 11 11 10 10 8 8 8 6 6 5 5 5 3 3 4 2 0 2 3 4 5 4 5 4 2 2 1 1 1 1 0 1 1 2 2 4 2 2 2 3 4 3 3 6 3 0 3 3 3 4 3 3 4 5 4 5 6 6 7 6 7 6 5 5 5 6 7 8 8 8 9 11 12 13 14 15 16 16 16 15 16
12 12 13 12 12 11 10 9 8 7 8 6 6 9 8 6 5 5 5 5 2 1 1 2 4 4 4 3 2 3 2 2 3 3 1 1 1 4 5 4 2 4 3 2 2 1 1 3 2 2 4 5 4 5 4 4 6 7 7 10 9 9 10 9 9 8 8 7 6 7 7 8 8 8 8 9 10 12 13 14 15 16 17 17 17
13 13 13 12 12 12 10 9 8 8 9 7 8 9 8 9 8 7 5 5 4 2 1 1 2 2 1 1 2 4 2 2 4 2 1 2 2 3 7 8 6 1 4 3 2 1 4 6 6 4 5 5 4 4 5 5 7 9 12 13 11 11 12 12 11 11 10 9 9 9 8 8 9 8 8 8 9 10 11 12 13 14 16 16 17
14 15 14 13 13 13 10 10 10 9 9 10 9 8 10 12 11 9 7 6 5 4 3 2 2 3 4 3 3 3 1 2 6 4 1 1 3 3 7 9 9 7 2 5 2 2 5 8 7 5 6 8 7 7 7 9 10 12 15 14 12 12 13 13 13 12 11 11 10 10 10 10 10 10 10 9 10 10 11 12 13 13 14 15 15
14 15 15 14 15 14 12 11 11 10 10 11 10 9 12 14 13 10 9 8 7 6 5 5 5 5 6 4 3 4 3 3 5 4 1 2 3 4 5 4 5 8 5 1 3 3 5 9 9 9 10 12 12 11 12 13 12 12 13 13 12 12 15 17 15 13 12 12 12 12 12 12 12 12 12 12 12 12 12 13 14 14 14 14 15
16 15 14 15 16 15 13 13 13 12 12 13 11 11 13 14 13 13 12 11 9 8 8 7 7 6 7 5 4 5 4 4 4 4 4 3 3 2 2 3 4 8 9 6 4 4 7 10 10 10 11 13 13 13 13 13 11 11 12 12 13 15 19 21 17 15 15 15 14 14 14 14 14 15 15 15 14 14 14 14 15 15 15 15 15
18 17 15 16 16 16 16 15 15 15 15 15 13 14 15 13 13 14 14 14 12 11 10 9 8 7 6 5 6 7 6 5 4 4 5 5 3 3 4 3 2 5 7 7 6 7 9 10 9 10 11 12 13 13 14 13 13 12 13 14 17 20 20 18 16 16 17 17 18 18 17 15 16 16 17 18 17 16 16 15 15 15 15 15 14
19 19 18 17 17 17 17 16 16 17 17 17 15 15 16 14 14 14 14 13 13 13 11 9 8 8 7 7 7 7 6 6 5 5 5 4 2 2 2 1 2 2 3 4 6 7 9 10 9 10 12 11 11 12 13 14 13 12 13 15 17 18 17 16 17 19 19 20 20 20 19 19 20 20 20 20 20 19 17 16 16 15 15 14 14
22 21 20 19 19 19 19 18 18 18 18 18 16 16 17 15 14 14 13 12 13 12 11 10 9 9 8 8 9 8 7 7 7 6 6 6 5 5 6 6 5 3 2 2 4 6 9 11 10 8 9 8 8 11 13 14 13 12 14 16 18 18 18 18 20 21 21 21 21 21 22 24 25 24 22 22 22 21 19 17 16 16 15 14 13
23 23 22 22 21 21 20 20 20 20 19 19 19 17 17 17 15 14 13 12 12 11 11 11 11 8 7 8 8 8 8 8 8 8 7 8 8 8 8 9 9 8 6 4 4 7 11 12 10 7 6 7 8 10 12 13 14 15 16 17 19 20 21 21 21 22 23 24 24 25 26 26 25 22 21 21 22 22 21 19 18 17 16 15 14
24 24 25 24 24 23 22 22 21 22 21 21 21 19 17 18 17 16 15 14 13 13 12 12 12 9 8 8 8 8 8 8 9 8 7 8 9 9 10 10 11 12 12 7 4 7 11 11 11 10 9 11 13 13 14 15 15 16 17 18 20 21 23 24 24 24 25 25 25 25 24 23 22 20 19 20 21 22 22 22 21 19 19 19 18
26 27 27 26 26 25 24 23 23 24 23 22 22 21 18 18 18 17 17 16 16 16 14 14 13 10 10 10 9 9 9 8 9 8 8 9 10 10 11 11 12 13 14 11 6 9 13 12 12 13 13 13 14 14 15 15 16 17 18 20 22 23 24 24 24 24 23 23 23 22 21 21 21 20 20 20 20 21 22 23 23 23 22 22 22
29 29 29 29 29 28 26 25 25 25 24 23 23 23 21 21 20 19 18 18 19 18 16 15 14 11 11 11 10 10 9 9 9 9 10 10 9 10 11 12 14 13 12 12 10 10 14 13 12 13 13 12 13 14 13 14 15 16 17 18 19 20 21 22 22 22 22 22 22 22 22 21 21 21 21 22 22 22 23 24 25 25 25 25 24
31 31 32 31 31 30 29 28 28 27 27 25 24 24 24 23 23 21 20 19 20 20 18 16 14 12 11 11 11 11 10 10 10 10 10 10 10 10 11 11 12 12 11 12 12 10 13 15 13 12 12 12 12 13 12 13 15 15 17 18 18 19 20 22 23 22 21 20 21 22 22 21 22 23 24 24 25 25 26 26 27 28 28 28 28
31 32 33 33 33 33 32 31 30 30 29 28 26 26 25 24 25 23 22 20 20 21 20 18 16 14 13 13 12 12 11 11 12 11 11 11 11 11 11 10 11 11 11 12 13 12 14 17 18 15 13 11 12 13 14 15 15 15 17 19 19 19 20 21 22 22 22 20 21 22 23 23 25 26 26 25 25 25 25 25 26 28 29 30 30
31 33 33 33 34 35 34 33 33 33 32 30 28 27 26 27 28 26 24 23 21 21 21 19 17 15 14 14 14 13 12 12 12 12 12 12 12 12 11 11 11 12 12 12 14 15 14 16 19 18 16 14 14 15 15 16 16 16 17 18 18 19 20 20 21 21 21 21 22 23 24 25 27 28 28 26 25 25 25 25 25 26 27 29 29
31 32 33 33 34 35 35 35 35 35 34 33 31 30 30 30 30 28 26 24 23 22 21 19 18 17 15 15 14 13 12 13 13 14 14 13 13 12 12 12 12 12 12 12 13 13 13 15 18 19 18 18 17 17 16 16 15 16 18 19 18 19 20 20 20 20 21 21 22 22 23 24 25 26 27 27 26 26 26 27 27 27 28 29 29
30 32 34 34 34 36 36 34 35 36 35 35 34 33 33 31 28 27 26 25 25 23 22 20 19 17 16 15 14 14 13 14 14 15 14 13 13 12 12 12 12 12 12 12 13 13 13 15 17 19 19 18 17 17 16 15 15 17 19 21 21 20 19 19 19 19 20 20 21 21 22 23 24 25 27 29 29 29 29 29 30 31 32 33 33
30 31 33 34 34 35 35 34 35 36 35 35 35 35 33 30 27 27 27 26 25 23 21 20 18 16 15 15 15 16 16 16 16 16 15 13 13 13 13 12 12 11 11 12 13 13 13 15 16 16 16 16 17 17 17 15 17 19 20 19 20 20 19 18 19 20 21 22 23 24 24 24 25 26 28 29 30 30 31 31 32 32 34 35 36
30 30 31 32 33 34 34 34 35 35 35 34 34 33 31 29 28 28 27 27 25 23 21 19 17 15 15 15 15 16 17 18 17 17 15 14 13 14 13 12 11 10 11 12 13 13 13 15 16 16 16 16 17 17 17 15 16 18 18 15 16 18 18 18 19 20 22 24 25 25 25 24 25 26 26 27 28 29 30 30 31 32 33 33 34
31 29 29 31 33 33 34 34 33 34 34 33 32 33 33 32 30 29 28 27 25 22 20 18 17 16 16 15 15 16 17 17 18 19 17 16 16 15 13 12 12 12 12 13 13 14 14 15 15 16 15 16 16 16 15 14 14 16 15 14 15 17 17 19 20 21 22 22 23 24 23 23 24 24 25 26 26 27 28 29 30 32 33 33 33
32 30 30 31 33 33 34 35 33 32 32 31 32 36 36 34 32 30 29 27 25 22 19 16 15 16 16 16 15 16 16 16 18 18 17 17 18 18 17 17 16 15 15 15 15 15 15 14 14 14 14 15 15 15 14 14 14 15 14 13 14 16 16 17 19 19 20 20 21 22 22 21 22 24 25 26 27 27 28 30 31 32 32 32 32
31 30 30 32 33 32 33 35 35 33 32 32 34 37 36 34 33 31 29 27 24 19 17 15 14 14 16 16 16 16 16 17 18 18 18 19 20 20 20 20 20 20 19 18 17 16 15 14 14 14 14 14 15 15 15 14 14 14 13 13 13 15 15 14 14 16 18 19 20 22 23 22 23 25 27 28 29 30 30 29 29 29 30 30 30
30 30 30 32 34 32 31 33 34 34 33 33 35 36 35 35 34 30 27 26 23 20 18 18 16 16 17 17 16 16 16 17 19 20 20 21 22 21 21 21 22 22 22 20 18 17 17 16 16 17 17 16 15 15 13 13 14 15 14 14 14 15 15 14 14 16 18 19 21 24 27 27 25 25 27 29 30 30 29 29 29 29 29 28 28
27 30 30 31 32 32 30 30 31 33 33 34 35 35 36 37 35 30 26 24 23 22 20 19 19 19 19 18 16 15 15 16 19 20 20 20 20 19 19 20 21 22 22 21 19 18 19 19 19 19 19 17 16 15 14 14 16 16 15 14 15 15 15 16 17 20 22 23 24 26 28 28 25 24 27 30 31 31 31 30 30 29 28 28 29
26 28 28 29 30 31 29 29 30 32 32 34 36 36 36 37 35 31 26 24 25 24 21 19 19 20 20 18 17 16 15 15 17 19 20 20 18 18 18 19 19 18 18 17 17 18 20 22 23 23 22 20 19 19 18 16 15 14 14 16 17 18 20 22 24 26 27 27 26 25 25 25 25 24 27 29 30 29 29 28 28 28 27 28 29
22 25 27 27 29 29 29 30 32 32 31 33 35 35 36 37 36 32 27 24 26 26 22 19 20 21 19 17 17 18 17 17 18 18 17 16 16 17 18 17 16 15 15 16 16 17 17 18 19 20 19 18 17 16 15 15 15 16 18 18 19 21 24 25 25 26 27 26 25 24 22 22 23 23 25 28 28 27 27 27 27 28 29 31 33
20 24 26 26 28 29 29 30 31 30 30 31 33 35 37 38 38 34 28 25 26 25 22 21 22 22 20 17 16 16 16 18 19 18 16 14 14 15 16 15 14 13 14 14 14 14 14 15 16 15 14 14 14 13 15 16 17 19 19 18 19 21 21 20 20 22 22 21 23 24 23 22 22 23 26 27 26 27 27 27 28 30 32 34 35
18 23 25 26 28 29 29 29 30 29 29 30 32 35 38 38 38 35 31 28 25 23 21 21 21 22 21 19 17 16 17 18 18 17 16 15 15 15 14 13 12 13 13 13 12 14 15 15 15 14 13 12 13 15 17 17 17 18 18 19 22 24 19 14 14 17 18 20 24 25 23 20 20 21 24 25 25 26 27 28 30 32 32 33 33
17 21 25 26 27 28 28 29 29 29 28 29 32 34 36 37 37 36 32 27 24 23 22 21 22 22 21 19 18 17 17 18 18 16 15 15 15 14 13 12 13 13 12 11 10 10 9 9 10 11 12 13 14 17 18 18 18 21 22 25 27 24 18 14 15 16 18 21 23 21 17 17 19 21 24 25 26 28 28 29 30 31 31 32 32
16 18 23 24 25 26 26 27 28 28 27 28 30 32 34 35 35 33 30 26 23 22 21 21 22 22 20 19 19 19 18 17 17 15 14 14 15 13 12 11 12 11 10 10 10 9 9 9 9 11 13 14 16 19 19 19 20 22 25 29 31 26 20 18 19 16 12 14 17 18 18 18 21 23 24 20 18 21 26 27 28 30 31 32 32
Wind_Direction
185 189 180 180 201 209 227 269 297 313 325 327 335 1 340 328 332 325 320 316 318 318 310 305 299 302 275 260 277 262 269 275 270 294 250 262 236 204 218 316 314 236 162 193 206 207 210 210 210 212 213 215 217 216 214 213 209 206 206 208 211 213 211 210 211 212 214 214 215 216 219 223 225 224 223 226 228 230 234 235 238 244 247 255 261
175 172 165 170 202 234 264 274 283 307 322 314 317 336 317 312 316 314 318 317 317 313 305 305 287 274 246 233 264 262 265 282 284 257 246 247 213 204 234 270 304 218 186 190 212 204 208 212 213 212 213 215 219 223 220 214 212 210 214 215 210 212 215 214 213 212 214 216 218 219 219 221 223 226 227 227 228 230 233 236 239 244 248 252 256
191 171 172 185 207 244 269 260 260 280 294 290 286 288 286 297 306 310 319 313 307 303 290 287 274 264 248 231 234 233 242 261 264 260 259 244 221 215 217 224 241 202 189 197 214 210 208 211 214 213 214 214 216 228 230 215 211 212 218 220 209 206 212 214 215 216 217 219 221 222 222 224 224 227 231 231 232 232 233 236 239 242 246 250 255
198 170 176 213 226 240 255 229 216 250 277 277 278 286 291 299 309 319 337 334 310 293 281 283 293 300 288 275 272 248 228 243 263 284 298 253 198 184 192 209 244 200 194 194 198 205 210 212 214 214 216 217 214 225 233 220 215 218 222 225 216 211 213 214 215 216 218 222 225 227 228 229 230 231 234 236 238 239 239 240 241 244 246 250 254
204 189 185 230 252 235 230 218 205 224 254 263 280 291 296 304 328 338 340 327 298 284 286 298 309 319 315 323 348 356 344 308 288 285 292 268 219 263 212 203 197 195 192 184 188 190 203 210 208 210 215 219 219 223 224 215 221 229 228 229 227 222 220 219 218 219 219 221 224 227 230 233 236 237 239 241 243 245 246 247 247 249 250 253 254
209 207 200 208 236 235 224 230 215 218 243 269 291 289 300 343 349 327 315 299 293 301 313 310 315 318 319 333 347 346 335 308 290 274 265 267 226 229 213 211 202 199 216 194 193 181 196 206 205 212 214 212 217 222 220 209 220 236 237 234 234 232 229 226 222 222 223 224 226 227 229 232 236 239 241 244 246 248 250 251 253 253 254 256 256
212 213 214 203 214 234 240 232 211 223 254 278 286 257 11 5 322 308 309 303 309 321 314 308 320 318 327 333 319 325 333 315 305 296 275 259 229 218 203 205 191 196 244 229 208 191 186 197 202 213 217 212 208 211 219 209 214 232 239 239 240 239 239 238 233 231 231 230 230 232 233 234 236 238 239 242 244 247 250 251 254 255 255 257 259
209 210 222 213 207 233 247 233 223 240 247 206 259 233 270 2 6 332 323 323 321 313 307 316 316 304 311 308 295 340 345 331 341 350 329 336 311 270 203 188 183 194 217 214 220 178 155 174 196 221 229 227 221 216 221 212 212 228 240 246 247 245 245 246 245 242 240 238 236 237 238 239 239 240 241 243 244 246 248 250 252 254 256 257 259
204 207 223 220 206 221 228 229 248 253 153 112 300 265 240 31 21 344 328 332 322 315 322 324 316 314 304 288 270 42 356 351 355 348 332 341 328 286 151 139 120 93 142 163 145 75 108 121 139 212 246 239 240 241 236 231 228 232 242 250 253 252 250 250 251 251 250 247 245 243 242 242 243 244 246 247 248 250 250 251 251 253 255 256 258
210 211 223 224 208 215 227 244 257 203 139 133 266 248 130 56 2 342 338 338 325 326 345 343 335 336 318 328 36 42 347 353 341 345 326 304 340 16 83 90 85 80 89 97 80 64 68 74 85 102 194 188 213 239 242 242 238 237 244 251 253 254 254 253 255 258 256 253 252 251 248 246 245 246 250 251 250 250 252 253 253 253 254 255 256
220 219 222 220 206 218 236 242 207 156 144 241 271 22 71 35 355 351 340 335 322 321 340 347 335 329 315 328 1 3 330 334 294 337 326 124 59 34 83 77 66 75 70 69 74 53 51 56 60 67 104 119 110 131 204 236 241 245 252 257 258 258 259 259 260 263 262 260 259 258 257 252 249 247 249 253 253 251 250 251 252 253 254 255 255
222 220 214 213 211 226 228 186 152 149 167 252 13 60 54 15 360 351 335 330 319 310 327 343 328 318 311 304 307 286 176 188 234 205 192 123 90 50 71 74 63 73 63 67 79 43 44 53 59 66 76 94 103 122 145 157 168 209 239 253 259 256 257 260 263 268 269 267 264 262 261 258 256 251 249 253 257 255 252 251 251 252 253 254 254
224 216 210 212 212 215 191 157 160 168 168 179 106 101 56 17 7 342 325 316 316 306 304 329 309 290 291 280 237 196 165 152 190 211 172 122 106 89 92 89 74 70 51 64 78 78 86 74 62 56 53 77 93 107 117 106 110 130 192 229 244 244 251 255 257 265 270 270 266 263 261 260 260 256 253 254 257 258 256 254 254 253 252 251 251
222 208 207 212 205 186 163 163 176 173 167 163 143 151 96 16 348 320 307 286 287 310 340 312 304 302 306 290 206 169 146 155 199 206 158 138 127 132 139 117 93 80 54 64 77 80 92 83 75 67 50 71 78 81 107 108 107 108 169 209 221 229 245 256 258 264 267 265 261 259 260 261 261 259 257 256 257 258 256 255 255 254 253 251 251
214 200 207 212 197 173 162 170 171 163 174 171 174 189 149 28 316 286 294 293 269 250 35 1 347 352 341 304 195 140 134 182 212 200 198 175 147 124 118 108 93 89 72 69 81 79 85 83 81 82 86 102 81 85 108 109 98 86 52 22 20 205 208 235 254 272 271 265 259 257 259 260 260 260 259 259 259 259 256 255 255 255 255 254 253
205 199 205 196 178 168 165 172 168 163 174 170 190 195 145 117 268 261 288 317 310 215 143 43 20 23 353 302 326 355 98 309 242 239 330 133 128 110 102 98 86 99 98 90 95 99 97 90 84 84 94 105 88 85 92 88 95 85 5 343 332 305 270 248 246 265 272 271 271 268 264 261 261 262 262 263 264 264 262 261 259 257 256 256 256
199 193 186 167 163 167 167 172 171 168 179 185 196 172 125 175 237 248 283 323 330 331 113 67 34 51 29 358 353 356 31 345 333 348 22 75 106 117 119 100 72 92 119 119 95 101 108 97 100 97 96 107 110 117 112 104 125 294 351 26 7 354 327 278 266 271 274 275 276 278 276 273 272 270 268 268 269 268 267 268 267 264 259 258 257
194 185 172 161 162 169 172 174 173 171 182 195 187 140 138 249 216 196 282 343 337 336 72 88 60 61 53 39 38 33 9 345 345 349 14 40 62 127 144 141 109 98 137 167 126 109 108 102 115 110 99 115 126 142 154 149 163 237 23 51 44 36 37 16 313 292 291 287 281 279 279 280 279 277 276 273 272 272 272 271 269 268 265 262 259
193 184 177 177 172 173 177 175 177 180 183 177 158 211 192 168 139 138 90 29 355 331 357 91 84 80 72 51 49 37 26 8 355 354 354 354 350 62 133 149 125 104 151 173 151 135 114 93 123 133 111 118 126 143 170 167 152 115 55 41 32 23 18 22 14 341 319 308 301 293 286 283 281 279 278 275 273 272 272 274 273 271 269 266 263
192 185 178 179 174 173 177 176 180 183 174 160 163 197 146 135 115 109 118 33 347 338 2 37 42 93 97 57 49 45 34 30 24 24 14 336 330 1 29 80 113 119 166 152 126 124 117 105 123 147 138 132 138 173 233 242 264 325 17 7 358 347 337 339 340 338 327 315 311 306 300 294 289 285 282 278 274 272 270 272 273 272 271 269 267
183 181 175 176 175 174 177 177 177 173 163 162 181 175 135 130 121 115 147 160 67 345 14 11 3 59 81 52 11 346 341 323 299 220 143 47 342 326 248 207 168 105 114 114 91 68 106 130 122 132 193 190 167 185 218 209 251 288 318 331 334 332 328 324 319 317 311 306 303 302 303 302 299 295 290 284 279 275 272 270 270 269 268 268 269
178 180 178 179 179 177 175 174 174 171 169 175 174 158 144 151 156 152 167 160 144 283 328 359 356 17 39 38 334 305 272 245 251 225 153 80 289 293 281 256 123 93 96 100 96 50 116 165 216 277 220 214 187 183 208 222 243 266 294 308 310 315 321 320 316 311 303 298 294 293 295 297 299 298 294 290 285 282 278 275 272 270 268 266 266
180 180 180 181 178 174 172 173 173 173 173 170 165 162 166 168 161 159 170 159 155 200 242 327 332 328 314 197 245 299 312 321 315 300 90 32 357 303 311 337 7 10 190 165 134 222 272 265 256 235 194 196 205 196 204 224 248 274 290 289 288 300 310 313 311 306 299 294 290 287 289 291 295 296 295 293 290 287 286 282 278 275 274 272 268
181 177 177 181 177 170 170 172 170 173 174 169 171 181 178 169 163 164 171 170 173 182 185 230 243 242 257 233 225 261 290 318 318 327 33 44 22 328 317 344 352 327 234 154 177 253 275 274 262 250 215 205 218 216 220 243 264 285 288 280 285 299 304 309 307 295 290 291 289 285 283 284 288 291 294 295 295 293 291 290 286 281 278 277 275
182 177 175 180 178 171 171 172 169 171 176 176 180 181 169 164 166 168 172 178 184 186 190 210 215 233 268 272 240 245 249 254 274 293 291 176 189 246 283 321 335 323 319 224 214 218 251 261 256 258 241 226 233 235 242 256 263 277 282 277 287 297 301 306 303 289 285 288 289 287 282 280 280 283 286 290 294 295 294 293 290 287 283 281 280
184 182 178 181 179 174 175 176 175 175 177 179 183 181 170 162 166 172 177 181 184 189 195 204 206 226 259 276 278 278 288 283 255 258 270 245 220 240 302 337 321 306 300 287 252 222 249 256 247 246 236 227 238 247 255 259 253 259 269 272 279 287 295 299 294 287 285 284 287 288 284 281 280 280 280 282 287 291 294 293 290 289 287 285 283
186 187 184 182 179 176 178 179 181 180 180 181 184 188 182 172 174 181 183 182 183 188 196 202 205 212 230 252 275 285 293 296 278 268 280 285 301 342 15 13 319 298 294 297 293 271 265 263 248 243 235 227 235 248 255 254 248 253 262 269 276 282 291 293 288 287 286 283 285 288 287 284 283 282 278 276 277 283 289 292 290 288 286 286 285
187 187 187 185 181 179 179 180 183 184 184 185 186 187 186 184 188 189 185 182 183 189 197 203 206 208 216 231 247 262 277 284 277 278 295 301 290 305 318 260 246 285 297 302 300 287 282 285 275 252 240 237 245 250 252 251 248 252 260 267 274 281 287 287 285 287 286 284 284 286 287 285 286 286 280 273 270 272 279 285 285 283 283 283 283
187 187 188 187 184 182 181 182 185 188 188 188 189 188 188 191 196 195 193 191 187 192 199 203 209 213 219 225 226 235 255 268 266 265 273 277 267 254 248 241 240 253 270 279 279 286 296 304 304 271 237 235 254 257 256 254 253 256 262 267 270 274 277 277 279 282 284 284 283 283 285 286 287 287 281 272 266 264 268 275 278 278 278 278 279
186 188 188 187 186 185 184 185 187 189 190 190 192 194 191 192 197 199 201 199 193 197 204 207 213 215 221 228 227 229 239 247 251 248 244 249 250 247 243 240 241 240 244 262 266 273 283 286 291 279 233 232 256 258 257 260 264 267 269 271 272 272 274 275 276 276 277 278 279 280 282 284 286 285 280 274 267 262 261 266 271 271 272 274 274
188 188 187 187 187 187 187 188 189 191 192 192 194 194 192 192 197 201 203 202 197 198 206 213 214 212 220 232 233 234 240 244 247 245 240 239 240 244 246 243 242 242 243 252 263 265 267 268 275 275 264 267 270 265 265 269 268 267 266 268 270 272 275 275 274 274 274 274 275 278 281 283 283 283 281 277 271 265 261 263 266 266 268 270 272
190 188 187 188 188 188 188 189 191 193 194 194 194 195 197 196 198 201 203 202 200 197 201 213 216 212 216 226 230 231 235 239 243 245 243 244 244 245 248 248 249 249 245 244 251 265 265 264 269 274 276 277 275 270 270 268 265 263 264 266 270 274 277 276 275 276 276 278 278 277 279 282 283 283 282 280 276 270 265 263 264 264 265 267 269
191 190 189 189 189 189 188 189 193 194 193 193 193 196 200 200 201 205 205 205 207 202 198 205 212 211 211 219 226 230 232 236 242 245 244 246 249 247 249 252 252 253 250 247 251 267 274 271 265 271 277 279 278 277 272 267 268 267 266 269 273 276 277 276 276 277 277 279 280 280 279 279 280 279 277 276 274 272 270 267 265 264 264 265 267
193 192 191 190 191 190 189 191 193 193 192 192 192 194 197 200 202 205 207 209 210 205 199 201 206 210 215 221 227 231 236 241 242 244 247 248 250 251 252 253 253 256 258 257 257 267 279 280 275 275 280 279 278 281 279 275 276 274 271 272 272 272 273 274 275 275 275 276 278 281 282 278 277 278 278 274 272 273 274 273 270 268 266 266 267
195 194 193 192 192 191 191 192 193 193 192 192 193 193 195 198 201 205 208 210 209 203 199 199 200 206 216 224 230 234 238 241 242 245 248 249 251 253 255 258 263 267 266 265 267 270 277 283 284 285 287 285 282 285 286 285 285 284 280 279 276 271 270 271 273 274 275 275 275 278 280 280 279 280 282 280 277 276 275 275 273 271 270 269 270
196 196 195 194 194 193 192 193 193 192 191 191 193 194 196 199 202 206 209 210 210 206 202 201 201 204 215 225 231 235 238 241 245 246 247 249 252 252 254 261 267 271 274 274 275 274 274 281 285 286 287 290 290 288 288 288 288 287 287 287 284 279 274 272 272 274 277 279 279 279 280 280 280 281 283 283 282 279 278 278 277 275 273 272 273
196 195 195 196 196 195 194 194 194 192 191 191 191 193 197 200 202 206 209 210 211 209 205 202 202 205 213 224 231 235 239 242 245 247 247 247 249 249 253 260 262 269 277 279 278 278 277 281 284 286 288 290 291 291 292 292 290 288 288 288 286 284 283 279 275 274 278 279 280 280 279 278 278 280 281 280 279 278 278 279 279 278 279 278 277
195 195 196 197 198 197 196 196 195 194 193 191 190 193 198 198 199 204 209 210 210 210 206 203 205 209 214 224 234 239 242 244 244 246 247 245 248 251 254 258 263 272 277 279 283 285 282 281 282 286 289 290 291 292 293 291 287 287 289 288 288 289 286 281 278 278 279 279 277 277 277 276 276 278 279 279 279 278 277 277 277 278 279 280 280
195 195 196 197 199 199 199 199 198 196 194 191 192 194 197 196 197 202 208 210 209 209 208 206 207 212 217 226 236 240 241 242 242 244 245 245 248 253 257 261 264 270 275 281 285 284 280 279 281 284 288 289 290 292 293 290 287 290 291 288 288 290 287 282 281 281 279 279 279 278 277 277 277 279 280 280 279 279 280 279 279 280 281 280 280
200 199 195 195 197 199 200 202 200 198 195 193 193 193 195 197 197 200 206 208 209 210 209 207 208 213 220 227 236 240 238 237 238 240 242 244 247 250 255 260 260 265 274 279 282 280 279 280 282 284 287 287 288 291 291 287 284 290 293 285 279 283 285 285 286 284 283 284 285 285 283 282 281 280 280 280 279 281 281 281 280 281 281 280 279
202 202 197 194 195 197 200 202 201 199 198 196 194 193 196 198 199 200 203 206 208 210 207 205 208 217 224 229 236 240 239 239 239 238 237 239 241 244 249 256 260 266 272 274 276 278 279 278 279 283 285 286 288 290 288 284 284 292 294 283 278 283 286 288 288 288 288 289 289 288 287 286 284 283 283 283 283 282 281 280 279 279 279 279 278
200 204 201 195 194 195 198 200 199 199 199 198 196 197 200 199 198 199 201 204 207 208 205 205 211 223 231 233 236 239 240 243 243 238 236 238 241 246 254 261 263 265 268 271 273 275 277 275 276 280 282 283 286 289 291 292 295 299 298 289 286 290 292 291 291 292 293 294 291 288 287 286 286 287 287 287 285 283 281 279 278 278 279 280 281
200 204 202 196 194 194 195 197 197 198 199 199 199 201 202 201 198 197 198 202 202 200 201 207 219 235 241 238 235 236 237 242 244 243 243 247 251 255 260 265 266 267 268 270 271 273 275 276 278 280 279 280 285 291 295 298 300 302 303 300 295 292 291 289 290 293 295 296 295 292 289 288 289 289 289 288 286 284 282 279 279 280 280 281 282
202 204 203 199 194 193 193 194 197 199 201 203 202 202 203 204 200 195 196 199 198 196 203 213 226 240 244 240 237 237 237 240 243 245 248 251 255 259 264 266 267 267 268 266 266 269 272 275 276 276 275 278 286 290 292 296 302 305 305 301 296 292 290 287 287 291 295 298 298 295 291 289 291 289 287 286 285 283 282 281 281 282 282 282 283
206 205 204 200 196 194 192 191 195 199 203 206 205 203 205 206 202 196 195 197 196 198 206 215 225 234 237 238 237 235 235 238 240 242 246 250 253 259 265 267 266 267 269 267 265 267 270 269 267 267 273 280 287 290 290 294 301 305 304 302 300 297 293 290 289 290 293 295 294 291 287 287 288 285 281 283 283 281 280 281 281 280 280 281 283
209 206 203 200 196 193 190 190 195 201 204 207 207 205 206 206 202 196 195 197 197 201 207 215 224 231 232 233 234 230 230 238 242 242 244 250 257 264 268 269 270 272 274 273 271 268 266 262 260 265 273 280 283 286 289 292 295 297 297 296 295 293 290 288 287 288 290 292 289 284 280 282 284 280 277 282 283 281 281 284 285 284 284 286 287
209 204 200 196 193 191 191 194 199 203 207 208 207 206 208 207 202 196 195 197 202 207 211 216 224 230 230 229 231 228 227 238 245 243 242 245 253 261 265 267 270 272 273 274 274 271 268 264 263 267 274 278 281 284 286 286 285 285 288 290 290 288 284 283 283 284 287 290 287 279 274 281 287 283 282 287 289 287 288 290 290 290 290 290 290
204 200 197 191 189 189 192 196 200 204 209 212 209 207 208 206 201 198 199 203 206 210 214 217 223 229 230 229 229 226 225 231 236 236 238 242 248 253 258 262 264 265 267 271 274 274 273 271 268 267 269 271 277 285 290 290 290 290 288 285 282 279 277 277 277 277 280 289 289 280 275 282 289 287 287 291 292 291 293 293 292 291 289 288 288
197 198 195 191 191 192 193 198 202 204 209 212 208 206 207 207 203 202 205 208 209 212 215 219 222 226 229 229 230 230 227 223 223 228 238 246 249 250 253 259 263 266 269 275 282 282 275 270 271 275 278 282 290 298 297 291 287 284 275 268 269 269 266 266 271 273 279 287 288 284 280 285 296 298 297 299 299 297 297 296 294 291 289 286 286
196 198 197 196 197 198 201 205 204 203 206 206 203 204 207 207 205 204 205 208 211 214 217 221 224 227 227 228 233 233 225 218 221 231 240 244 244 242 245 254 260 266 273 276 283 291 288 281 286 291 294 297 301 300 295 286 282 277 266 260 264 264 259 261 270 279 285 283 285 292 298 304 312 313 310 308 303 297 296 294 292 289 287 286 287
200 200 199 199 199 201 206 209 206 203 202 199 199 205 209 208 206 204 204 207 211 215 219 222 224 226 227 229 233 231 224 223 232 240 243 242 241 238 240 250 257 262 268 269 274 290 298 297 297 295 294 295 293 287 283 282 284 281 272 267 266 261 257 268 278 284 288 285 294 311 320 318 316 312 310 310 303 297 297 295 291 291 290 289 291